Weather History for Manhattan, KS

Change the Weather History Date:

Wednesday, January 23, 2013

  Actual Average Record
Temperature  
Mean Temperature 30 °F 29 °F  
Max Temperature 48 °F 41 °F 60 °F (2004)
Min Temperature 12 °F 17 °F -6 °F (2003)
Degree Days  
Heating Degree Days 35 36  
Month to date heating degree days 770 843  
Since 1 July heating degree days 2691 2984  
Cooling Degree Days 0 0  
Month to date cooling degree days 0 0  
Year to date cooling degree days 0 0  
Moisture  
Dew Point 16 °F    
Average Humidity 63    
Maximum Humidity 88    
Minimum Humidity 37    
Precipitation  
Precipitation 0.00 in 0.02 in 0.00 in (2014)
Month to date precipitation 0.27 0.36  
Year to date precipitation 0.27 0.36  
Sea Level Pressure  
Sea Level Pressure 30.29 in    
Wind  
Wind Speed 6 mph (NNE)    
Max Wind Speed 20 mph    
Max Gust Speed 23 mph    
Visibility 10 miles    
Events      
T = Trace of Precipitation, MM = Missing Value Source: NWS Daily Summary

Daily Weather History Graph

Daily Weather History Graph

Search for Another Location

Airport:

Trip Planner

Search our weather history database for the weather conditions in past years. The results will help you decide how hot, cold, wet, or windy it might be!

Date:

Astronomy

Jan. 23, 2013 Rise Set
Actual Time 7:40 AM CST 5:37 PM CST
Civil Twilight 7:11 AM CST 6:06 PM CST
Nautical Twilight 6:38 AM CST 6:38 PM CST
Astronomical Twilight 6:07 AM CST 7:10 PM CST
Moon 2:49 PM CST (1/23) 4:52 AM CST (1/23)
Length of Visible Light 10h 54m
Length of Day
9h 57m
Waxing Gibbous, 89% of the Moon is Illuminated
Jan 23
Waxing Gibbous
Jan 26
Full
Feb 3
Last Quarter
Feb 10
New
Feb 17
First Quarter

Hourly Weather History & Observations

Time (CST) Temp. Windchill Dew Point Humidity Pressure Visibility Wind Dir Wind Speed Gust Speed Precip Events Conditions
12:52 AM 18.0 °F - 10.9 °F 74% 30.29 in 10.0 mi Calm Calm - N/A   Clear
1:52 AM 15.1 °F - 10.9 °F 84% 30.28 in 10.0 mi Calm Calm - N/A   Clear
2:52 AM 14.0 °F - 10.0 °F 84% 30.27 in 10.0 mi Calm Calm - N/A   Clear
3:52 AM 14.0 °F - 10.0 °F 84% 30.26 in 10.0 mi Calm Calm - N/A   Clear
4:52 AM 14.0 °F - 10.0 °F 84% 30.25 in 10.0 mi Calm Calm - N/A   Clear
5:52 AM 12.9 °F - 9.0 °F 84% 30.26 in 10.0 mi Calm Calm - N/A   Clear
6:52 AM 14.0 °F - 10.0 °F 84% 30.25 in 10.0 mi Calm Calm - N/A   Clear
7:52 AM 15.1 °F - 10.9 °F 84% 30.25 in 10.0 mi Calm Calm - N/A   Clear
8:52 AM 18.0 °F - 12.9 °F 81% 30.25 in 10.0 mi Calm Calm - N/A   Clear
9:52 AM 28.0 °F - 19.0 °F 69% 30.25 in 10.0 mi Calm Calm - N/A   Clear
10:52 AM 35.1 °F 32.2 °F 21.0 °F 57% 30.25 in 10.0 mi South 3.5 mph - N/A   Clear
11:52 AM 41.0 °F 38.0 °F 21.2 °F 45% 30.21 in 10.0 mi WNW 4.6 mph - N/A   Clear
12:52 PM 45.0 °F 42.6 °F 21.9 °F 40% 30.22 in 10.0 mi NW 4.6 mph - N/A   Clear
1:52 PM 46.9 °F - 23.0 °F 39% 30.21 in 10.0 mi NE 10.4 mph - N/A   Clear
2:52 PM 46.9 °F - 21.0 °F 36% 30.21 in 10.0 mi NNE 9.2 mph - N/A   Clear
3:52 PM 46.9 °F - 21.0 °F 36% 30.22 in 10.0 mi NNE 11.5 mph - N/A   Clear
4:52 PM 42.1 °F 35.2 °F 21.0 °F 43% 30.27 in 10.0 mi NE 12.7 mph - N/A   Clear
5:52 PM 37.9 °F 30.5 °F 21.0 °F 51% 30.31 in 10.0 mi NNE 11.5 mph - N/A   Clear
6:52 PM 35.1 °F 25.9 °F 19.0 °F 52% 30.35 in 10.0 mi NNE 13.8 mph - N/A   Clear
7:52 PM 32.0 °F 21.2 °F 17.6 °F 55% 30.35 in 10.0 mi NNE 16.1 mph 21.9 mph N/A   Clear
8:52 PM 28.9 °F 18.6 °F 16.0 °F 58% 30.41 in 10.0 mi NNE 12.7 mph - N/A   Clear
9:52 PM 28.0 °F 17.0 °F 16.0 °F 61% 30.43 in 10.0 mi NE 13.8 mph - N/A   Clear
10:52 PM 28.0 °F 16.5 °F 16.0 °F 61% 30.45 in 10.0 mi NE 15.0 mph - N/A   Clear
11:52 PM 25.0 °F 12.6 °F 14.0 °F 63% 30.47 in 10.0 mi NE 15.0 mph - N/A   Clear